Elk City, ID

7:07 AM PST on January 16, 2017 (GMT -0800)
Lowell

Weather History for KP69 - April, 2014

Change the Weather History Date:

Friday, April 18, 2014

  Actual Average Record
Temperature  
Mean Temperature 52 °F -  
Max Temperature 62 °F 59 °F 82 °F (2016)
Min Temperature 39 °F 36 °F 28 °F (2013)
Degree Days  
Heating Degree Days 14    
Growing Degree Days 2 (Base 50)    
Moisture  
Dew Point 37 °F    
Average Humidity 69    
Maximum Humidity 97    
Minimum Humidity 19    
Precipitation  
Precipitation 0.22 in - - ()
Sea Level Pressure  
Sea Level Pressure 29.97 in    
Wind  
Wind Speed 2 mph (ESE)    
Max Wind Speed 10 mph    
Max Gust Speed 28 mph    
Averages and records for this station are not official NWS values.
T = Trace of Precipitation, MM = Missing Value Source: NWS Daily Summary

Daily Weather History Graph

Daily Weather History Graph

Search for Another Location

Airport or City:

Trip Planner

Search our weather history database for the weather conditions in past years. The results will help you decide how hot, cold, wet, or windy it might be!

Date:

Astronomy

Apr. 18, 2014 Rise Set
Actual Time 6:50 AM MDT 8:32 PM MDT
Civil Twilight 6:18 AM MDT 9:04 PM MDT
Nautical Twilight 5:40 AM MDT 9:42 PM MDT
Astronomical Twilight 4:59 AM MDT 10:24 PM MDT
Moon No Moon Rise 9:09 AM MDT (4/18)
Length of Visible Light 14h 45m
Length of Day
13h 42m
Waning Gibbous, 86% of the Moon is Illuminated
Apr 18
Waning Gibbous
Apr 22
Last Quarter
Apr 29
New
May 6
First Quarter
May 14
Full

Hourly Weather History & Observations

Time (MDT) Temp. Windchill Dew Point Humidity Pressure Visibility Wind Dir Wind Speed Gust Speed Precip Events Conditions
12:52 AM 48.0 °F - 46.9 °F 96% 29.85 in - Calm Calm - 0.11 in   Unknown
1:52 AM 48.0 °F - 46.9 °F 96% 29.86 in - Calm Calm - 0.05 in   Unknown
2:52 AM 48.0 °F - 46.0 °F 93% 29.86 in - Calm Calm - 0.02 in   Unknown
3:52 AM 46.9 °F - 46.0 °F 97% 29.86 in - Calm Calm - 0.01 in   Unknown
4:52 AM 46.0 °F - 45.0 °F 96% 29.87 in - Calm Calm - N/A   Unknown
5:52 AM 46.0 °F - 45.0 °F 96% 29.90 in - Calm Calm - 0.01 in   Unknown
6:52 AM 45.0 °F - 44.1 °F 97% 29.93 in - Calm Calm - 0.02 in   Unknown
7:52 AM 43.0 °F 41.3 °F 41.0 °F 93% 29.97 in - Variable 3.5 mph - N/A   Unknown
8:52 AM 44.1 °F 42.5 °F 42.1 °F 93% 29.99 in - WNW 3.5 mph - N/A   Unknown
9:52 AM 46.0 °F - 42.1 °F 86% 29.99 in - Calm Calm - N/A   Unknown
10:52 AM 51.1 °F - 42.1 °F 71% 29.99 in - Calm Calm - N/A   Unknown
11:52 AM 55.0 °F - 34.0 °F 45% 29.99 in - ESE 6.9 mph - N/A   Unknown
12:52 PM 55.9 °F - 28.0 °F 34% 29.99 in - Variable 3.5 mph - N/A   Unknown
1:52 PM 57.9 °F - 26.1 °F 30% 29.99 in - ESE 10.4 mph 17.3 mph N/A   Unknown
2:52 PM 59.0 °F - 23.0 °F 25% 29.99 in - ENE 6.9 mph 20.7 mph N/A   Unknown
3:52 PM 61.0 °F - 19.9 °F 21% 29.98 in - Variable 5.8 mph 27.6 mph N/A   Unknown
4:52 PM 62.1 °F - 19.0 °F 19% 29.98 in - SSE 8.1 mph - N/A   Unknown
5:52 PM 55.0 °F - 28.0 °F 35% 30.00 in - Variable 3.5 mph - N/A   Unknown
6:52 PM 52.0 °F - 35.1 °F 53% 30.01 in - Variable 3.5 mph - N/A   Unknown
7:52 PM 50.0 °F - 37.9 °F 63% 30.03 in - Calm Calm - N/A   Unknown
9:52 PM 43.0 °F - 36.0 °F 76% 30.07 in - Calm Calm - N/A   Unknown
10:52 PM 41.0 °F - 35.1 °F 79% 30.08 in - Calm Calm - N/A   Unknown
11:52 PM 39.0 °F - 34.0 °F 82% 30.08 in - Calm Calm - N/A   Unknown